DW5411 Weather Reports


time (UTC)temp
C
wind
direction
speed
KPH
gust
KPH
rain 1hr
cm
rain 24hr
cm
rain mn
cm
humidity
%
barometer
mb
20260906131300 25 244 0.0 0.0 0.00 0.00 0.00 91 1013.4
20260906130800 25 243 0.0 0.0 0.00 0.00 0.00 92 1013.4
20260906130300 25 243 0.0 0.0 0.00 0.00 0.00 92 1013.5
20260906125800 25 340 0.0 0.0 0.00 0.00 0.00 92 1013.6
20260906125300 25 61 0.0 0.0 0.00 0.00 0.00 92 1013.5
20260906124800 25 61 0.0 0.0 0.00 0.00 0.00 92 1013.4
20260906123800 25 61 0.0 1.6 0.00 0.00 0.00 92 1013.3
20260906123300 25 61 0.0 4.8 0.00 0.00 0.00 92 1013.3
20260906122759 25 61 0.0 4.8 0.00 0.00 0.00 92 1013.3
20260906122259 25 15 1.6 4.8 0.00 0.00 0.00 92 1013.4
20260906121759 24 15 1.6 1.6 0.00 0.00 0.00 93 1013.2
20260906121259 24 13 0.0 0.0 0.00 0.00 0.00 93 1013.0
20260906120759 24 13 0.0 0.0 0.00 0.00 0.00 93 1012.9
20260906115759 24 13 0.0 0.0 0.00 0.00 0.00 92 1012.9
20260906115259 24 13 0.0 0.0 0.00 0.00 0.00 92 1012.9
20260906114759 24 13 0.0 0.0 0.00 0.00 0.00 92 1013.1
20260906114259 24 13 0.0 0.0 0.00 0.00 0.00 92 1013.2
20260906113759 24 13 0.0 0.0 0.00 0.00 0.00 91 1013.0
20260906113258 24 13 0.0 0.0 0.00 0.00 0.00 91 1013.1
20260906112758 24 13 0.0 0.0 0.00 0.00 0.00 91 1013.2
20260906112258 24 13 0.0 0.0 0.00 0.00 0.00 90 1013.3
20260906111758 24 13 0.0 0.0 0.00 0.00 0.00 90 1013.3
20260906111258 24 13 0.0 0.0 0.00 0.00 0.00 90 1013.2
20260906110758 24 13 0.0 0.0 0.00 0.00 0.00 90 1013.3
20260906110258 25 13 0.0 0.0 0.00 0.00 0.00 89 1013.4
20260906105758 25 13 0.0 0.0 0.00 0.00 0.00 89 1013.3
20260906105258 25 13 0.0 0.0 0.00 0.00 0.00 89 1013.3
20260906104258 25 13 0.0 0.0 0.00 0.00 0.00 88 1013.3
20260906103757 25 13 0.0 0.0 0.00 0.00 0.00 88 1013.3
20260906103257 25 13 0.0 3.2 0.00 0.00 0.00 88 1013.3
20260906102757 25 13 0.0 8.0 0.00 0.00 0.00 88 1013.3
20260906102257 25 13 1.6 8.0 0.00 0.00 0.00 88 1013.4
20260906101257 25 50 1.6 8.0 0.00 0.00 0.00 90 1013.6
20260906100757 25 14 1.6 6.4 0.00 0.00 0.00 90 1013.7
20260906100257 25 345 0.0 0.0 0.00 0.00 0.00 90 1013.8
20260906095757 25 345 0.0 3.2 0.00 0.00 0.00 90 1013.8
20260906095257 25 345 0.0 3.2 0.00 0.00 0.00 89 1013.7
20260906094757 25 345 1.6 6.4 0.00 0.00 0.00 89 1013.6
20260906094257 25 345 1.6 6.4 0.00 0.00 0.00 89 1013.5
20260906093756 25 29 3.2 8.0 0.00 0.00 0.00 90 1013.4
20260906093257 25 355 4.8 8.0 0.00 0.00 0.00 90 1013.3
20260906092756 25 328 4.8 6.4 0.00 0.00 0.00 91 1013.2
20260906091756 25 285 0.0 0.0 0.00 0.00 0.00 91 1013.0
20260906091256 25 266 0.0 0.0 0.00 0.00 0.00 91 1012.9
20260906090756 25 266 0.0 0.0 0.00 0.00 0.00 91 1012.8
20260906090256 25 266 0.0 0.0 0.00 0.00 0.00 91 1012.9
20260906085756 25 266 0.0 0.0 0.00 0.00 0.00 91 1012.9
20260906084756 25 259 0.0 0.0 0.00 0.00 0.00 91 1012.7
20260906083755 25 249 0.0 0.0 0.00 0.00 0.00 91 1012.6
20260906083255 25 247 0.0 0.0 0.00 0.00 0.00 91 1012.7
20260906082755 25 240 0.0 4.8 0.00 0.00 0.00 92 1012.7
20260906082255 25 234 0.0 4.8 0.00 0.00 0.00 92 1012.7
20260906081755 25 257 1.6 4.8 0.00 0.00 0.00 92 1012.6
20260906080755 25 275 1.6 4.8 0.00 0.00 0.00 92 1012.7
20260906080255 25 275 1.6 4.8 0.00 0.00 0.00 92 1012.7
20260906075755 25 275 1.6 4.8 0.00 0.00 0.00 92 1012.8
20260906075254 25 272 3.2 3.2 0.00 0.00 0.00 92 1012.8
20260906074754 25 272 0.0 4.8 0.00 0.00 0.00 92 1012.9
20260906074254 25 272 1.6 4.8 0.00 0.00 0.00 92 1012.8
20260906073254 25 279 1.6 8.0 0.00 0.00 0.00 92 1012.8
20260906072754 25 289 4.8 6.4 0.00 0.00 0.00 92 1012.8
20260906072254 25 259 1.6 1.6 0.00 0.00 0.00 92 1012.7
20260906071754 25 252 0.0 0.0 0.00 0.00 0.00 91 1012.6
20260906071254 25 252 0.0 0.0 0.00 0.00 0.00 91 1012.6
20260906070754 25 252 0.0 0.0 0.00 0.00 0.00 91 1012.8
20260906070254 25 252 0.0 0.0 0.00 0.00 0.00 90 1012.9
20260906065753 25 252 0.0 0.0 0.00 0.00 0.00 90 1012.9
20260906065253 25 252 0.0 1.6 0.00 0.00 0.00 90 1012.9
20260906064753 25 252 0.0 3.2 0.00 0.00 0.00 90 1013.0
20260906062753 25 221 4.8 4.8 0.00 0.00 0.00 90 1012.9
20260906061753 26 218 1.6 3.2 0.00 0.00 0.00 90 1013.1
20260906061252 26 218 1.6 3.2 0.00 0.00 0.00 90 1013.2
20260906060752 26 217 1.6 4.8 0.00 0.00 0.00 90 1013.3
20260906060252 26 219 3.2 4.8 0.00 0.00 0.00 90 1013.4
20260906055752 26 219 3.2 4.8 0.00 0.00 0.00 90 1013.4
20260906055252 26 219 4.8 6.4 0.00 0.00 0.00 90 1013.4
20260906054752 26 204 0.0 6.4 0.00 0.00 0.00 90 1013.5
20260906053752 26 207 1.6 8.0 0.00 0.00 0.00 90 1013.3
20260906053252 26 232 3.2 4.8 0.00 0.00 0.00 90 1013.4
20260906052752 26 236 0.0 0.0 0.00 0.00 0.00 90 1013.3
20260906052251 26 236 0.0 3.2 0.00 0.00 0.00 90 1013.5
20260906051751 26 236 0.0 3.2 0.00 0.00 0.00 89 1013.7
20260906051252 26 236 0.0 4.8 0.00 0.00 0.00 89 1013.7
20260906050751 26 236 3.2 4.8 0.00 0.00 0.00 89 1013.7
20260906050251 26 239 3.2 4.8 0.00 0.00 0.00 88 1013.6
20260906045751 26 239 0.0 4.8 0.00 0.00 0.00 89 1013.7
20260906045251 26 241 4.8 8.0 0.00 0.00 0.00 89 1013.5
20260906044751 26 267 1.6 8.0 0.00 0.00 0.00 89 1013.6
20260906044251 26 229 3.2 6.4 0.00 0.00 0.00 90 1013.6
20260906043751 26 311 0.0 0.0 0.00 0.00 0.00 89 1013.7
20260906043251 26 311 0.0 0.0 0.00 0.00 0.00 89 1013.7
20260906042251 26 311 0.0 0.0 0.00 0.00 0.00 89 1013.7
20260906041751 26 311 0.0 0.0 0.00 0.00 0.00 89 1013.7
20260906041251 26 312 0.0 0.0 0.00 0.00 0.00 88 1013.7
20260906040250 26 312 0.0 4.8 0.00 0.00 0.00 88 1013.9
20260906035750 26 312 0.0 4.8 0.00 0.00 0.00 88 1013.9
20260906035250 26 316 0.0 0.0 0.00 0.00 0.00 88 1013.7
20260906034750 26 316 0.0 0.0 0.00 0.00 0.00 88 1013.6
20260906033750 27 148 0.0 0.0 0.00 0.00 0.00 87 1013.6
20260906033250 27 148 0.0 0.0 0.00 0.00 0.00 86 1013.4
20260906032750 27 148 0.0 0.0 0.00 0.00 0.00 86 1013.5
20260906032250 27 148 0.0 0.0 0.00 0.00 0.00 86 1013.6
20260906031750 27 148 0.0 0.0 0.00 0.00 0.00 86 1013.7
20260906031250 27 148 0.0 3.2 0.00 0.00 0.00 85 1013.9
20260906030749 27 148 0.0 3.2 0.00 0.00 0.00 85 1013.7
20260906030249 27 148 3.2 9.7 0.00 0.00 0.00 85 1013.5
20260906025749 27 140 1.6 9.7 0.00 0.00 0.00 85 1013.8
20260906025249 27 91 4.8 9.7 0.00 0.00 0.00 85 1013.8
20260906024249 27 212 1.6 6.4 0.00 0.00 0.00 84 1013.3
20260906023749 27 212 1.6 6.4 0.00 0.00 0.00 84 1013.1
20260906023249 28 211 1.6 4.8 0.00 0.00 0.00 84 1013.1
20260906022748 28 211 1.6 4.8 0.00 0.00 0.00 83 1013.2
20260906022249 28 211 1.6 4.8 0.00 0.00 0.00 83 1013.2
20260906021248 28 211 3.2 4.8 0.00 0.00 0.00 83 1013.2
20260906020748 28 212 3.2 4.8 0.00 0.00 0.00 82 1013.2
20260906020248 28 212 4.8 6.4 0.00 0.00 0.00 82 1013.1
20260906015748 28 212 3.2 11.3 0.00 0.00 0.00 82 1013.0
20260906015248 28 208 4.8 11.3 0.00 0.00 0.00 82 1012.9
20260906014748 28 253 6.4 9.7 0.00 0.00 0.00 81 1012.6
20260906014248 28 257 3.2 11.3 0.00 0.00 0.00 81 1012.7
20260906013748 28 218 8.0 11.3 0.00 0.00 0.00 81 1012.7
20260906013248 29 196 4.8 8.0 0.00 0.00 0.00 80 1012.6
20260906012247 29 234 8.0 14.5 0.00 0.00 0.00 80 1012.4
20260906011747 29 226 1.6 12.9 0.00 0.00 0.00 79 1012.4
20260906010817 30 243 8.0 12.9 0.00 0.00 0.00 79 1012.3
20260906010317 30 224 3.2 14.5 0.00 0.00 0.00 78 1012.1
20260906005817 30 211 6.4 14.5 0.00 0.00 0.00 78 1011.7
20260906005317 30 227 4.8 11.3 0.00 0.00 0.00 77 1011.6
20260906004746 30 225 9.7 11.3 0.00 0.00 0.00 77 1011.4
20260906004246 30 231 4.8 14.5 0.00 0.00 0.00 76 1011.4
20260906003746 30 207 4.8 14.5 0.00 0.00 0.00 75 1011.5
20260906002816 31 207 8.0 11.3 0.00 0.00 0.00 74 1011.5
20260906001245 31 240 4.8 9.7 0.00 0.00 0.00 73 1011.6
20260906000745 31 216 3.2 11.3 0.00 0.00 0.00 72 1011.6
20260906000315 32 206 6.4 11.3 0.00 0.00 0.00 71 1011.6
20260905235815 32 217 6.4 12.9 0.00 0.00 0.00 71 1011.6
20260905235315 32 215 6.4 14.5 0.00 0.00 0.00 70 1011.5
20260905234745 32 205 1.6 14.5 0.00 0.00 0.00 69 1011.5
20260905234315 32 213 6.4 12.9 0.00 0.00 0.00 69 1011.4
20260905233314 33 228 3.2 8.0 0.00 0.00 0.00 67 1011.4
20260905232814 33 210 3.2 9.7 0.00 0.00 0.00 67 1011.3
20260905232314 33 207 4.8 14.5 0.00 0.00 0.00 66 1011.4
20260905231814 33 196 6.4 14.5 0.00 0.00 0.00 66 1011.4
20260905231314 33 142 8.0 14.5 0.00 0.00 0.00 65 1011.4
20260905230815 33 167 6.4 12.9 0.00 0.00 0.00 64 1011.4
20260905225814 34 185 4.8 16.1 0.00 0.00 0.00 62 1011.4
20260905224814 34 161 8.0 14.5 0.00 0.00 0.00 60 1011.1
20260905224314 34 176 3.2 6.4 0.00 0.00 0.00 59 1011.1
20260905223814 33 171 3.2 6.4 0.00 0.00 0.00 59 1011.1
20260905223313 33 98 0.0 0.0 0.00 0.00 0.00 60 1011.1
20260905222313 35 97 0.0 3.2 0.00 0.00 0.00 56 1011.1
20260905221813 36 97 0.0 3.2 0.00 0.00 0.00 54 1011.1
20260905220312 36 96 1.6 8.0 0.00 0.00 0.00 47 1011.2
20260905215812 37 104 0.0 8.0 0.00 0.00 0.00 47 1011.2
20260905214812 37 101 6.4 11.3 0.00 0.00 0.00 47 1011.2
20260905213812 37 46 6.4 12.9 0.00 0.00 0.00 47 1011.2
20260905212311 37 26 9.7 16.1 0.00 0.00 0.00 48 1011.3
20260905211811 36 24 3.2 12.9 0.00 0.00 0.00 48 1011.4
20260905211311 37 26 6.4 12.9 0.00 0.00 0.00 47 1011.5
20260905210811 36 113 3.2 12.9 0.00 0.00 0.00 47 1011.4
20260905205811 37 29 8.0 12.9 0.00 0.00 0.00 49 1011.5
20260905205311 36 309 6.4 12.9 0.00 0.00 0.00 49 1011.6
20260905204811 36 79 6.4 12.9 0.00 0.00 0.00 50 1011.7
20260905204311 37 119 1.6 14.5 0.00 0.00 0.00 48 1011.7
20260905203811 37 67 3.2 16.1 0.00 0.00 0.00 47 1011.7
20260905202310 37 43 14.5 17.7 0.00 0.00 0.00 48 1011.7
20260905201810 36 101 9.7 14.5 0.00 0.00 0.00 49 1011.7
20260905201310 36 136 3.2 14.5 0.00 0.00 0.00 50 1011.8
20260905200310 36 104 4.8 16.1 0.00 0.00 0.00 48 1011.9
20260905195809 36 59 1.6 20.9 0.00 0.00 0.00 48 1011.9
20260905195310 36 88 14.5 20.9 0.00 0.00 0.00 49 1012.0
20260905194809 37 57 3.2 12.9 0.00 0.00 0.00 49 1012.1
20260905194309 36 128 6.4 14.5 0.00 0.00 0.00 49 1012.2
20260905193309 37 90 3.2 16.1 0.00 0.00 0.00 49 1012.4
20260905192309 36 59 8.0 16.1 0.00 0.00 0.00 49 1012.4
20260905191809 36 125 11.3 16.1 0.00 0.00 0.00 50 1012.4
20260905191309 36 101 11.3 16.1 0.00 0.00 0.00 49 1012.5
20260905190809 36 101 14.5 16.1 0.00 0.00 0.00 51 1012.7
20260905190308 36 148 12.9 16.1 0.00 0.00 0.00 52 1012.7
20260905185808 36 141 4.8 16.1 0.00 0.00 0.00 50 1012.9
20260905184808 36 115 11.3 16.1 0.00 0.00 0.00 51 1013.1
20260905184308 36 49 6.4 19.3 0.00 0.00 0.00 51 1013.1
20260905183808 36 139 4.8 19.3 0.00 0.00 0.00 53 1013.2
20260905182807 36 139 4.8 14.5 0.00 0.00 0.00 52 1013.4
20260905182307 36 113 4.8 14.5 0.00 0.00 0.00 54 1013.5
20260905181307 36 38 1.6 19.3 0.00 0.00 0.00 55 1013.7
20260905180807 36 44 8.0 19.3 0.00 0.00 0.00 55 1013.7
20260905180306 35 66 8.0 22.5 0.00 0.00 0.00 55 1013.7
20260905175807 35 328 12.9 22.5 0.00 0.00 0.00 54 1013.9
20260905175307 36 96 12.9 16.1 0.00 0.00 0.00 55 1013.9
20260905174806 36 57 8.0 16.1 0.00 0.00 0.00 54 1013.9
20260905173806 35 86 3.2 16.1 0.00 0.00 0.00 55 1014.1
20260905173306 35 57 1.6 17.7 0.00 0.00 0.00 55 1014.2
20260905171805 35 44 4.8 16.1 0.00 0.00 0.00 58 1014.4
20260905171306 35 39 9.7 14.5 0.00 0.00 0.00 58 1014.5
20260905170805 35 63 4.8 14.5 0.00 0.00 0.00 58 1014.6
20260905170305 35 101 4.8 14.5 0.00 0.00 0.00 58 1014.6
20260905165805 35 46 3.2 14.5 0.00 0.00 0.00 60 1014.7
20260905165306 35 123 11.3 14.5 0.00 0.00 0.00 59 1014.8
20260905164805 35 111 9.7 14.5 0.00 0.00 0.00 60 1014.9
20260905164305 35 51 4.8 14.5 0.00 0.00 0.00 61 1014.9
20260905163804 34 73 4.8 14.5 0.00 0.00 0.00 61 1014.9
20260905162805 34 119 6.4 14.5 0.00 0.00 0.00 63 1015.0
20260905162306 34 96 1.6 17.7 0.00 0.00 0.00 62 1015.1
20260905161805 34 115 11.3 17.7 0.00 0.00 0.00 64 1015.1
20260905161304 33 85 12.9 17.7 0.00 0.00 0.00 65 1015.1
20260905160804 33 350 3.2 16.1 0.00 0.00 0.00 64 1015.0
20260905160304 33 337 3.2 12.9 0.00 0.00 0.00 65 1015.0
20260905155804 33 17 4.8 14.5 0.00 0.00 0.00 66 1014.9
20260905155306 33 45 1.6 14.5 0.00 0.00 0.00 66 1014.9
20260905154804 33 17 12.9 12.9 0.00 0.00 0.00 65 1014.9
20260905154303 33 48 9.7 9.7 0.00 0.00 0.00 67 1014.9
20260905153803 32 338 3.2 12.9 0.00 0.00 0.00 67 1014.9
20260905153303 32 126 4.8 14.5 0.00 0.00 0.00 69 1015.0
20260905152803 32 315 6.4 16.1 0.00 0.00 0.00 69 1014.8
20260905152306 32 11 3.2 16.1 0.00 0.00 0.00 69 1014.8
20260905151333 32 30 6.4 9.7 0.00 0.00 0.00 71 1015.0
20260905145754 31 44 6.4 9.7 0.00 0.00 0.00 73 1015.0
20260905145254 31 28 8.0 9.7 0.00 0.00 0.00 74 1015.0
20260905143754 30 84 0.0 12.9 0.00 0.00 0.00 78 1015.1
20260905143254 30 323 8.0 9.7 0.00 0.00 0.00 78 1015.2
20260905142754 30 35 3.2 9.7 0.00 0.00 0.00 78 1015.3
20260905142254 30 23 1.6 8.0 0.00 0.00 0.00 79 1015.3
20260905141253 29 47 3.2 8.0 0.00 0.00 0.00 79 1015.3
20260905140753 29 91 0.0 8.0 0.00 0.00 0.00 80 1015.4
20260905140253 28 101 4.8 8.0 0.00 0.00 0.00 81 1015.4
20260905135753 28 55 4.8 6.4 0.00 0.00 0.00 81 1015.4
20260905135253 28 82 4.8 6.4 0.00 0.00 0.00 82 1015.5
20260905134753 28 57 3.2 6.4 0.00 0.00 0.00 82 1015.5
20260905134253 28 42 0.0 8.0 0.00 0.00 0.00 83 1015.6
20260905133753 28 41 1.6 8.0 0.00 0.00 0.00 84 1015.6
20260905132753 27 103 3.2 4.8 0.00 0.00 0.00 87 1015.5
20260905132253 27 104 0.0 1.6 0.00 0.00 0.00 88 1015.5
20260905131753 26 201 0.0 1.6 0.00 0.00 0.00 90 1015.5